Home   Weather   Utah Hill   Past weeks
Flag for USA

Past Weather in Utah Hill, Colorado, USA — Yesterday and Last 2 Weeks

Now
45 °F

Scattered clouds.


Feels Like: 40 °F
Forecast: 53 / 31 °F
Wind: 12 mph from Southwest

Location: Buckley Air Force Base

Current Time: Dec 7, 2019 at 9:44:12 am

Latest Report: Dec 7, 2019 at 8:58 am


Visibility: 10 mi

Pressure: 30.00 "Hg

Humidity: 37%

Dew Point: 20 °F

Location of Utah HillLocation

Past Weather in Utah Hill — Graph

°F

Utah Hill Temperature Yesterday

Maximum temperature yesterday: 49 °F (at 12:58 pm)
Minimum temperature yesterday: 26 °F (at 1:58 am)
Average temperature yesterday: 35 °F

High & Low Weather Summary for the Past Weeks

 TemperatureHumidityPressure
High63 °F (Nov 24, 12:58 pm)100% (Nov 22, 7:17 am)30.32 "Hg (Nov 22, 7:17 am)
Low4 °F (Nov 27, 3:58 am)9% (Nov 24, 12:58 pm)29.36 "Hg (Nov 30, 1:58 am)
Average30 °F72%29.95 "Hg
* Reported Nov 22 7:17 am — Dec 7 7:58 am, Utah Hill. Weather by CustomWeather, © 2019

Note: Actual official high and low records may vary slightly from our data, if they occured in-between our weather recording intervals... More about our weather records

Utah Hill Weather History for the Previous 24 Hours

Scroll right to see more
 ConditionsComfort  
Time TempWeatherWind HumidityBarometerVisibility
7:58 am
Sat, Dec 7
38 °FPartly sunny.7 mph50%30.02 "Hg10 mi
6:58 am35 °FPartly cloudy.6 mph53%30.04 "Hg10 mi
5:58 am38 °FPartly cloudy.No wind47%30.04 "Hg10 mi
4:58 am35 °FPassing clouds.6 mph54%30.05 "Hg10 mi
3:58 am33 °FPassing clouds.8 mph61%30.06 "Hg10 mi
2:58 am33 °FPassing clouds.8 mph66%30.08 "Hg10 mi
1:58 am33 °FPassing clouds.7 mph66%30.10 "Hg10 mi
12:58 am32 °FClear.9 mph73%30.12 "Hg10 mi
11:58 pm
Fri, Dec 6
33 °FClear.12 mph70%30.15 "Hg10 mi
10:58 pm34 °FClear.8 mph71%30.18 "Hg10 mi
9:58 pm35 °FClear.9 mph69%30.20 "Hg10 mi
8:58 pm35 °FClear.9 mph75%30.21 "Hg10 mi
7:58 pm36 °FClear.5 mph73%30.25 "Hg10 mi
6:58 pm34 °FClear.7 mph77%30.26 "Hg10 mi
5:58 pm36 °FClear.8 mph75%30.25 "Hg10 mi
4:58 pm40 °FPassing clouds.9 mph68%30.22 "Hg10 mi
3:58 pm45 °FPassing clouds.7 mph62%30.21 "Hg10 mi
2:58 pm46 °FPassing clouds.7 mph64%30.21 "Hg10 mi
1:58 pm47 °FPassing clouds.7 mph66%30.20 "Hg10 mi
12:58 pm49 °FPassing clouds.No wind43%30.18 "Hg10 mi
11:58 am46 °FPassing clouds.9 mph56%30.22 "Hg10 mi
10:58 am42 °FPassing clouds.8 mph72%30.27 "Hg10 mi
9:58 am36 °FPassing clouds.6 mph84%30.30 "Hg10 mi
Weather by CustomWeather, © 2019

See weather overview

Advertising